Tracking 23885 objects as of 28-Nov-2021
HD Live streaming from Space Station
objects crossing your sky now

CZ-2D DEB

Track CZ-2D DEB now!
10-day predictions


NORAD ID: 43413
Int'l Code: 2013-068B
Perigee: 675.1 km
Apogee: 859.9 km
Inclination: 97.9 °
Period: 100.0 minutes
Semi major axis: 7138 km
RCS: Unknown
Launch date: November 25, 2013
Source: People's Republic of China (PRC)
Launch site: Jiuquan Satellite Launch Center, China (JSC)

Note: This is SATELLITE DEBRIS
aabbcc
Your satellite tracking list
Your tracking list is empty




NASA's NSSDC Master Catalog

Two Line Element Set (TLE):
1 43413U 13068B   21331.41602200  .00000537  00000-0  16870-3 0  9998
2 43413  97.8994 192.6847 0129475   9.1206 351.2292 14.39436872412037
Source of the keplerian elements: AFSPC